Location: Zagreb
(45.8000°N, 16.0000°E)
Time: 14:20:59
(UTC+02:00)

Vanguard 1 - Pass Details

Date: 17 August 2022
Orbit: 649 x 3832 km, 34.2° (Epoch: 25 September)

Event Time Altitude Azimuth Distance (km) Brightness Sun altitude
Rises 01:09:08 0° 180° (S) 4,495 - -30.7°
Reaches altitude 10° 01:13:35 10° 158° (SSE) 4,059 - -30.6°
Exits shadow 01:19:10 15° 127° (SE) 4,274 13.0 -30.5°
Maximum altitude 01:19:20 15° 127° (SE) 4,292 13.0 -30.5°
Drops below altitude 10° 01:26:45 10° 97° (E) 5,495 13.8 -30.4°
Sets 01:34:50 0° 80° (E) 7,188 14.7 -30.2°
